Weather Roundup
Issued by NWS

Home | Current Version | Previous Version | Graphics & Text | Print | Product List | Glossary Off
Versions: 1 2 3 4 5 6 7 8 9 10 11 12 13 14 15 16 17 18 19 20 21 22 23 24 25 26 27 28 29 30 31 32 33 34 35 36 37 38 39 40 41 42 43 44 45 46 47 48 49 50

082
NZUS93 KARX 052159
HRRWXR

CURRENT HOURLY OBSERVATIONS ACROSS
MUCH OF THE UPPER MISSISSIPPI VALLEY
NATIONAL WEATHER SERVICE LA CROSSE WI
400 PM CST FRI FEB 05 2016


...SOUTHEAST MINNESOTA...


CITY           SKY/WX    TMP DP  RH WIND       PRES   REMARKS
ROCHESTER      CLOUDY    20  14  77 S13       30.24F WCI   7
ROCHESTER/MAYO CLOUDY    23  14  68 SE8       30.25F WCI  14
WINONA         PTSUNNY   28  16  59 S5        30.31S WCI  23
AUSTIN         CLOUDY    21  16  79 S8        30.25S WCI  12
ALBERT LEA     LGT SNOW  25  16  68 S13       30.23S WCI  13
DODGE CENTER   CLOUDY    21  16  79 S10       30.23F WCI  10
PRESTON        CLOUDY    20  13  76 S10       30.27S WCI   8
OWATONNA       CLOUDY    25  16  68 S10       30.22F WCI  15
FARIBAULT      CLOUDY    27  18  69 S7        30.23S WCI  19
$$

...ELSEWHERE IN MINNESOTA...


CITY           SKY/WX    TMP DP  RH WIND       PRES   REMARKS
MINNEAPOLIS    CLOUDY    28  12  51 SW10      30.23F WCI  19
INTNL FALLS    CLOUDY    25  14  63 W6        30.07S WCI  18
DULUTH         PTSUNNY   26  10  50 SW17      30.09F WCI  13
RED WING       CLOUDY    25  14  63 SE3       30.25F
REDWOOD FALLS  CLOUDY    28  23  81 SW10      30.17F WCI  19
MANKATO        CLOUDY    25  18  74 S9        30.21F WCI  15
WORTHINGTON    CLOUDY    27  21  80 S15       30.16S WCI  15
FAIRMONT       CLOUDY    25  19  80 S20       30.19F WCI  11
$$

...SOUTHWEST WISCONSIN...


CITY           SKY/WX    TMP DP  RH WIND       PRES   REMARKS
LA CROSSE      CLOUDY    25  14  63 S9        30.31F WCI  15
PRAIRIE DU CHI CLOUDY    28  13  53 SW5       30.34S WCI  23
BOSCOBEL       CLOUDY    28  17  63 S6        30.34S WCI  22
LONE ROCK      PTSUNNY   27  17  66 S9        30.34S WCI  18
PLATTEVILLE    CLOUDY    28  20  72 SW6       30.33S WCI  22
FORT MC COY    CLOUDY    27  16  65 CALM      30.32S
VIROQUA        FAIR      25  16  68 S7        30.29F WCI  17
WIS DELLS      CLOUDY    28  16  60 W5        30.30S WCI  23
$$

...ELSEWHERE IN WISCONSIN...


CITY           SKY/WX    TMP DP  RH WIND       PRES   REMARKS
MILWAUKEE      PTSUNNY   31  12  45 W9        30.33R WCI  23
MADISON        CLOUDY    29  16  58 W3        30.32F
GREEN BAY      CLEAR     25  14  63 S6        30.29F WCI  18
EAU CLAIRE     CLOUDY    23  12  62 S8        30.25F WCI  14
BLACK RVR FLS  FAIR      27  13  56 SW5       30.29F WCI  22
MEDFORD        CLOUDY    21  13  71 S7        30.23F WCI  13
WAUSAU         CLOUDY    26  10  50 SW7       30.24S WCI  18
WIS RAPIDS     CLOUDY    25  15  66 S8        30.29F WCI  16
MARSHFIELD     CLOUDY    25  13  60 CALM      30.24F
RICE LAKE      CLOUDY    23  13  65 SE5       30.25F WCI  17
$$

...NORTHEAST IOWA...


CITY           SKY/WX    TMP DP  RH WIND       PRES   REMARKS
WATERLOO       CLOUDY    24  16  71 S7        30.30F WCI  16
DUBUQUE        CLOUDY    26  18  71 SW6       30.33S WCI  19
DECORAH        CLOUDY    23  14  68 S7        30.29F WCI  15
MASON CITY     CLOUDY    22  17  81 S9        30.27S WCI  12
CHARLES CITY   CLOUDY    21  18  86 S10       30.28F WCI  10
OELWEIN        CLOUDY    21  18  86 S6        30.32S WCI  14
$$

...ELSEWHERE IN IOWA...


CITY           SKY/WX    TMP DP  RH WIND       PRES   REMARKS
DES MOINES     CLOUDY    32  17  54 SE9       30.29F WCI  24
IOWA CITY      CLOUDY    29  20  69 CALM      30.37S
FORT DODGE     CLOUDY    25  18  74 S10       30.25F WCI  15
MARSHALLTOWN   CLOUDY    26  18  71 S10       30.29F WCI  16
CEDAR RAPIDS   CLOUDY    28  21  75 S6        30.32F WCI  22
$$

...NORTHERN ILLINOIS...


CITY           SKY/WX    TMP DP  RH WIND       PRES   REMARKS
CHICAGO-OHARE  CLOUDY    32  18  56 W7        30.34R WCI  26
CHICAGO-MIDWAY CLOUDY    34  18  52 W7        30.35R WCI  28
MOLINE         CLOUDY    32  18  56 CALM      30.36S
ROCKFORD       CLOUDY    30  19  63 W6        30.38R WCI  24
PEORIA         CLOUDY    31  19  61 CALM      30.38F
$$

NOTE: "FAIR" INDICATES FEW OR NO CLOUDS BELOW 12,000 FEET WITH NO
SIGNIFICANT WEATHER AND/OR OBSTRUCTIONS TO VISIBILITY. WIND
SPEEDS ARE IN MILES-PER-HOUR.




USA.gov is the U.S. government's official web portal to all federal, state and local government web resources and services.